Date String (YYYY-MM-DD hh:mm:ss) UTC,Instrument flags,Ambient pressure (hPa),Sample flow (lpm),Bypass flow (lpm),Sample temperature (°C),Ambient temperature (°C),ASC tube jacket temperature (°C),LED temperature (°C),Box temperature (°C),Sample RH (%),Span deviation,Mass concentration (μg/m³),Mass concentration (μg/m³),Mass concentration (μg/m³)
DateTimeUTC,F1_M11,P_M11,Q1_M11,Q2_M11,T1_M11,T2_M11,T3_M11,T4_M11,T5_M11,U1_M11,ZSPAN_M11,X0_M11,X2_M11,X1_M11
2022-06-30 11:00:00,,0827.7,5.00,0.00,29.6,28.4,00.0,38.4,31.5,20.5,0000.0,0003.78,0002.13,0001.63
2022-06-30 11:01:00,,0827.8,5.00,0.00,29.6,28.5,00.0,38.4,31.5,20.4,0000.0,0003.65,0002.09,0001.60
2022-06-30 11:02:00,,0827.7,5.01,0.00,29.6,28.5,00.0,38.4,31.5,20.5,0000.0,0003.66,0002.07,0001.59
2022-06-30 11:03:00,,0827.7,5.00,0.00,29.7,28.6,00.0,38.4,31.6,20.3,0000.0,0003.67,0002.06,0001.58
2022-06-30 11:04:00,,0827.7,4.99,0.00,29.7,28.6,00.0,38.5,31.6,20.2,0000.0,0003.60,0002.03,0001.55
2022-06-30 11:05:00,,0827.7,4.99,0.00,29.7,28.7,00.0,38.5,31.6,20.1,0000.0,0003.53,0002.01,0001.52
2022-06-30 11:06:00,,0827.7,5.00,0.00,29.7,28.7,00.0,38.5,31.6,20.0,0000.0,0003.43,0002.00,0001.51
2022-06-30 11:07:00,,0827.7,5.00,0.00,29.7,28.8,00.0,38.5,31.7,20.8,0000.0,0003.29,0001.98,0001.50
2022-06-30 11:08:00,,0827.7,5.00,0.00,29.8,28.8,00.0,38.5,31.7,21.8,0000.0,0003.69,0001.97,0001.51
2022-06-30 11:09:00,,0827.7,5.01,0.00,29.8,28.9,00.0,38.5,31.7,21.2,0000.0,0004.46,0002.02,0001.53
2022-06-30 11:10:00,,0827.7,5.00,0.00,29.8,28.9,00.0,38.5,31.7,22.1,0000.0,0004.42,0002.05,0001.56
2022-06-30 11:11:00,,0827.7,5.01,0.00,29.8,28.9,00.0,38.5,31.8,22.1,0000.0,0004.34,0002.08,0001.61
2022-06-30 11:12:00,,0827.7,5.00,0.00,29.8,28.9,00.0,38.6,31.7,22.8,0000.0,0004.39,0002.13,0001.67
2022-06-30 11:13:00,,0827.8,5.01,0.00,29.9,29.0,00.0,38.6,31.8,23.7,0000.0,0004.55,0002.15,0001.72
2022-06-30 11:14:00,,0827.7,5.00,0.00,29.9,29.0,00.0,38.6,31.8,22.6,0000.0,0004.61,0002.21,0001.77
2022-06-30 11:15:00,,0827.8,5.00,0.00,29.9,28.5,00.0,38.6,31.7,22.0,0000.0,0004.64,0002.23,0001.81
2022-06-30 11:16:00,,0827.7,5.00,0.00,29.8,27.7,00.0,38.5,31.5,21.8,0000.0,0004.69,0002.26,0001.85
2022-06-30 11:17:00,,0827.7,5.00,0.00,29.7,27.5,00.0,38.5,31.4,21.5,0000.0,0004.88,0002.34,0001.89
2022-06-30 11:18:00,,0827.7,4.99,0.00,29.7,27.5,00.0,38.5,31.3,20.9,0000.0,0004.90,0002.34,0001.92
2022-06-30 11:19:00,,0827.7,5.01,0.00,29.6,27.5,00.0,38.5,31.3,20.6,0000.0,0004.55,0002.34,0001.92
2022-06-30 11:20:00,,0827.7,5.00,0.00,29.6,27.7,00.0,38.5,31.3,20.9,0000.0,0003.64,0002.32,0001.91
2022-06-30 11:21:00,,0827.7,5.00,0.00,29.6,27.8,00.0,38.4,31.4,22.0,0000.0,0003.79,0002.38,0001.91
2022-06-30 11:22:00,,0827.7,5.00,0.00,29.6,27.9,00.0,38.4,31.4,21.2,0000.0,0005.03,0002.40,0001.89
2022-06-30 11:23:00,,0827.7,5.00,0.00,29.6,28.1,00.0,38.4,31.4,20.7,0000.0,0005.37,0002.42,0001.85
2022-06-30 11:24:00,,0827.7,5.00,0.00,29.6,28.2,00.0,38.4,31.4,20.5,0000.0,0005.14,0002.40,0001.81
2022-06-30 11:25:00,,0827.7,5.00,0.00,29.6,28.3,00.0,38.4,31.4,20.8,0000.0,0005.12,0002.37,0001.77
2022-06-30 11:26:00,,0827.6,5.01,0.00,29.6,28.3,00.0,38.4,31.5,20.9,0000.0,0005.21,0002.41,0001.74
2022-06-30 11:27:00,,0827.6,5.00,0.00,29.6,28.4,00.0,38.4,31.5,20.2,0000.0,0005.19,0002.39,0001.71
2022-06-30 11:28:00,,0827.6,5.00,0.00,29.6,28.5,00.0,38.4,31.5,20.0,0000.0,0005.10,0002.33,0001.68
2022-06-30 11:29:00,,0827.6,5.01,0.00,29.6,28.5,00.0,38.4,31.5,19.8,0000.0,0005.18,0002.32,0001.65
2022-06-30 11:30:00,,0827.6,5.00,0.00,29.7,28.6,00.0,38.5,31.6,19.8,0000.0,0005.17,0002.32,0001.64
2022-06-30 11:31:00,,0827.6,5.00,0.00,29.7,28.6,00.0,38.5,31.6,19.5,0000.0,0005.32,0002.33,0001.62
2022-06-30 11:32:00,,0827.7,5.01,0.00,29.7,28.7,00.0,38.5,31.6,19.1,0000.0,0005.17,0002.26,0001.60
2022-06-30 11:33:00,,0827.6,4.99,0.00,29.7,28.7,00.0,38.5,31.6,19.0,0000.0,0004.36,0002.20,0001.57
2022-06-30 11:34:00,,0827.7,5.00,0.00,29.7,28.7,00.0,38.5,31.7,18.9,0000.0,0005.00,0002.21,0001.55
2022-06-30 11:35:00,,0827.7,5.00,0.00,29.8,28.8,00.0,38.5,31.7,18.8,0000.0,0004.99,0002.21,0001.54
2022-06-30 11:36:00,,0827.7,5.00,0.00,29.8,28.8,00.0,38.5,31.7,18.8,0000.0,0004.92,0002.18,0001.54
2022-06-30 11:37:00,,0827.7,5.00,0.00,29.8,28.8,00.0,38.5,31.7,18.8,0000.0,0004.80,0002.11,0001.53
2022-06-30 11:38:00,,0827.7,5.01,0.00,29.8,28.9,00.0,38.6,31.7,18.8,0000.0,0004.72,0002.05,0001.51
2022-06-30 11:39:00,,0827.7,4.99,0.00,29.8,28.9,00.0,38.6,31.7,18.8,0000.0,0004.59,0002.02,0001.49
2022-06-30 11:40:00,,0827.7,5.00,0.00,29.9,28.9,00.0,38.6,31.8,19.1,0000.0,0004.36,0001.99,0001.48
2022-06-30 11:41:00,,0827.7,5.00,0.00,29.9,29.0,00.0,38.6,31.8,20.8,0000.0,0004.42,0002.03,0001.49
2022-06-30 11:42:00,,0827.7,5.00,0.00,29.9,28.7,00.0,38.6,31.7,22.3,0000.0,0004.31,0002.04,0001.52
2022-06-30 11:43:00,,0827.7,5.00,0.00,29.8,27.8,00.0,38.5,31.5,22.1,0000.0,0004.36,0002.07,0001.55
2022-06-30 11:44:00,,0827.7,5.01,0.00,29.7,27.5,00.0,38.5,31.4,22.6,0000.0,0004.37,0002.09,0001.58
2022-06-30 11:45:00,,0827.8,4.99,0.00,29.7,27.4,00.0,38.5,31.3,22.7,0000.0,0003.06,0002.06,0001.60
2022-06-30 11:46:00,,0827.8,4.99,0.00,29.6,27.5,00.0,38.5,31.3,21.4,0000.0,0003.07,0002.07,0001.63
2022-06-30 11:47:00,,0827.8,5.01,0.00,29.6,27.6,00.0,38.5,31.3,20.9,0000.0,0003.07,0002.10,0001.64
2022-06-30 11:48:00,,0827.8,4.99,0.00,29.6,27.8,00.0,38.4,31.3,20.7,0000.0,0003.22,0002.13,0001.65
2022-06-30 11:49:00,,0827.9,5.00,0.00,29.6,27.9,00.0,38.4,31.4,20.8,0000.0,0003.35,0002.18,0001.66
2022-06-30 11:50:00,,0827.8,5.00,0.00,29.6,28.0,00.0,38.4,31.4,21.0,0000.0,0003.44,0002.22,0001.69
2022-06-30 11:51:00,,0827.9,5.01,0.00,29.6,28.2,00.0,38.4,31.4,20.6,0000.0,0004.60,0002.21,0001.71
2022-06-30 11:52:00,,0827.9,5.00,0.00,29.6,28.3,00.0,38.4,31.5,20.6,0000.0,0004.53,0002.16,0001.70
2022-06-30 11:53:00,,0827.9,5.00,0.00,29.6,28.3,00.0,38.4,31.5,20.4,0000.0,0004.47,0002.12,0001.69
2022-06-30 11:54:00,,0827.9,5.00,0.00,29.6,28.4,00.0,38.4,31.5,20.3,0000.0,0004.51,0002.09,0001.66
2022-06-30 11:55:00,,0827.8,4.99,0.00,29.6,28.5,00.0,38.4,31.5,20.2,0000.0,0004.58,0002.13,0001.65
2022-06-30 11:56:00,,0827.9,5.00,0.00,29.6,28.6,00.0,38.4,31.6,20.3,0000.0,0004.85,0002.21,0001.65
2022-06-30 11:57:00,,0827.9,5.00,0.00,29.7,28.6,00.0,38.5,31.6,20.5,0000.0,0004.98,0002.17,0001.62
2022-06-30 11:58:00,,0827.9,4.99,0.00,29.7,28.7,00.0,38.5,31.6,20.5,0000.0,0005.17,0002.17,0001.62
2022-06-30 11:59:00,,0827.9,5.01,0.00,29.7,28.7,00.0,38.5,31.6,20.5,0000.0,0005.11,0002.14,0001.61
